Regional Weather Roundup
Issued by NWS Charleston, SC

Current Version | Previous Version | Text Only | Print | Product List | Glossary Off
Versions: 1 2 3 4 5 6 7 8 9 10 11 12 13 14 15 16 17 18 19 20 21 22 23 24 25 26 27 28 29 30 31 32 33 34 35 36 37 38 39 40 41 42 43 44 45 46 47 48 49 50

270
ASUS42 KCHS 040127
RWRCHS

REGIONAL WEATHER ROUNDUP
NATIONAL WEATHER SERVICE CHARLESTON SC
800 PM EST SAT DEC 03 2016

NOTE: "FAIR" INDICATES FEW OR NO CLOUDS BELOW 12,000 FEET WITH NO
SIGNIFICANT WEATHER AND/OR OBSTRUCTIONS TO VISIBILITY.

NOT ALL STATIONS ARE QUALITY CONTROLLED. USE DATA WITH CAUTION...
ESPECIALLY DEWPOINT OBSERVATIONS.

SCZ027-030-031-034>040-042>050-040200-
...SOUTHEAST SOUTH CAROLINA...

CITY           SKY/WX    TMP DP  RH WIND       PRES   REMARKS
N CHARLESTON   CLOUDY    52  37  56 NE8       30.25R
WATERFRONT PRK   N/A     54  44  69 N8        30.26R
MOUNT PLEASANT MOCLDY    52  41  66 N3        30.26F
JOHNS ISLAND   CLOUDY    54  41  62 CALM      30.26F
PINOPOLIS        N/A     54  39  58 VRB3      30.20R
MONCKS CORNER  FAIR      48  41  76 CALM      30.26F
SUMMERVILLE    MOCLDY    50  41  71 CALM      30.27F
BEAUFORT MCAS  CLOUDY    54  39  57 NE3       30.26R
BEAUFORT ARPT  CLOUDY    54  43  66 NE5       30.25F
HILTON HEAD IS CLOUDY    55  43  62 N6        30.27R
WALTERBORO     CLOUDY    52  37  58 CALM      30.27R
ALLENDALE      CLOUDY    52  41  66 CALM      30.26R

...SOUTHERN MIDLANDS AND PEE DEE...

CITY           SKY/WX    TMP DP  RH WIND       PRES   REMARKS
GEORGETOWN     NOT AVBL
KINGSTREE      CLOUDY    45  41  87 CALM      30.28S
ORANGEBURG     CLOUDY    50  38  63 CALM      30.26F
BARNWELL       NOT AVBL
AIKEN          CLOUDY    48  37  66 CALM      30.29S
MANNING        NOT AVBL
COLUMBIA       CLOUDY    51  40  65 CALM      30.26S
SUMTER         CLOUDY    49  41  74 CALM      30.25S
FLORENCE       CLOUDY    49  40  71 CALM      30.27R
MYRTLE BEACH   CLEAR     46  36  66 N6        30.28R
N MYRTLE BEACH PTCLDY    45  40  82 CALM      30.26R

$$

GAZ063-065-086>088-099>101-113>116-118-119-134>141-150-040200-
...SOUTHEAST GEORGIA...

CITY           SKY/WX    TMP DP  RH WIND       PRES   REMARKS
SAVANNAH ARPT  CLOUDY    55  41  59 NE7       30.25R
HUNTER AAF     CLOUDY    55  47  72 NE7       30.22S
FORT STEWART   CLOUDY    55  44  65 CALM      30.22R
STATESBORO     CLOUDY    55  42  59 CALM      30.26R
SYLVANIA       CLOUDY   N/A N/A N/A CALM      30.26R
CLAXTON        CLOUDY    55  48  77 N3        30.26R

...CSRA...CENTRAL AND FAR SOUTHEAST GEORGIA...

CITY           SKY/WX    TMP DP  RH WIND       PRES   REMARKS
THOMSON        CLOUDY    50  47  90 CALM      30.30F
AUGUSTA-BUSH   CLOUDY    53  42  66 CALM      30.26R
AUGUSTA-DANIEL CLOUDY    54  35  48 CALM      30.27R
SWAINSBORO     CLOUDY    55  36  47 E5        30.25F
VIDALIA        CLOUDY    57  45  62 NE6       30.25R
EASTMAN        CLOUDY    59  19  21 NE5       30.25S
HAZLEHURST     CLOUDY    59  42  53 E5        30.22R
ALMA           CLOUDY    57  44  62 E6        30.22R
WAYCROSS       CLOUDY    60  51  73 E8        30.21S
JESUP          CLOUDY    57  52  82 E5        30.23S
BAXLEY         CLOUDY    59  48  67 NE5       30.23R
BRUNSWICK      CLOUDY    59  54  82 NE8       30.22S
SAINT SIMONS   CLOUDY    60  52  74 NE8       30.20R

$$

SCZ027-028-034-036>038-045-046-048>050-GAZ119-141-040200-
...LAKE AND SUPPLEMENTAL COASTAL OBSERVATIONS...

STATION/POSITION TIME  TEMP    WIND        PRES    WAVE   SWELL
                       AIR SEA DIR/SP/G            HT/PER HT/PER/DIR
                 (UTC) (F)     (DEG/KT/KT) (MB)    (FT/S) (FT/S/D)
WINYAH BAY       0030   46     330/  2     1024.0S
LAKE MURRAY      0020   52        CALM     1024.0
ACE BASIN NERRS  0045   53      20/  2     1024.0R
FORT PULASKI     0100   57 62   60/  9/ 11 1024.2
SAPELO ISLAND    0100   58      40/  7     1023.0

$$

ANZ835-935-AMZ111-154-330-350-352-354-370-450-454-472-040200-
...C-MAN AND BUOY OBSERVATIONS...

STATION/POSITION TIME  TEMP    WIND        PRES    WAVE   SWELL
                       AIR SEA DIR/SP/G            HT/PER HT/PER/DIR
                 (UTC) (F)     (DEG/KT/KT) (MB)    (FT/S) (FT/S/D)
BUOY 41004       0050   57 75   10/ 14/ 17 1023.6R   3/ 6   2/130/ 8
BUOY 41008       2350   62 65   70/ 16/ 17 1022.1    4/ 6   2/110/ 9
FOLLY BEACH CMAN 0000   55      30/ 11/ 12 1024.3R
CAPERS NEARSHORE 0108   54 61   30/ 12/ 14 1024.2R
FRIPP NEARSHORE  0108   57 63   30/ 10/ 14 1024.1R


STATION/POSITION TIME  TEMP    WIND        PRES    WAVE   SWELL
                       AIR SEA DIR/SP/G            HT/PER HT/PER/DIR
                 (UTC) (F)     (DEG/KT/KT) (MB)    (FT/S) (FT/S/D)
5E ST. MARYS GA  0100      66                N/A     4/ 5
FRYING PAN BUOY  0100           10/ 10/ 16 1023.6
BUOY 41025       0050   63 74  360/ 14/ 17 1023.3R   4/ 8   3/ 40/ 8
CAPE LOOKOUT NC  0000   50     340/  4/  6 1023.7R
BUOY 41002       0050   63 73  360/ 14/ 19 1021.4R   5/ 8   3/ 20/ 8
BUOY 41010       NOT AVBL
ST AUGUSTINE FL  0100   68 67   40/ 11/ 13 1022.0R


$$




USA.gov is the U.S. government's official web portal to all federal, state and local government web resources and services.